Location: Cr�ches
(46.2447°N, 4.7868°E)
Time: 23:20:16
(UTC+00:00)

Daily predictions for brighter satellites

Satellite Brightness Start Highest point End
(mag) Time Altitude Azimuth Time Altitude Azimuth Time Altitude Azimuth
Cosmos 2251 Rocket 4.2 19:49:00 10° NNW 19:54:08 56° WSW 19:59:13 10° S
Cosmos 1544 4.3 19:53:11 10° NNE 19:56:19 26° ENE 19:59:23 10° SE
Cosmos 2082 Rocket 4.1 19:52:26 10° N 19:56:27 19° NE 20:00:26 10° E
STARLINK-1158 3.7 19:54:22 10° WNW 19:58:30 74° SW 20:02:38 10° SE
Cosmos 1908 Rocket 3.6 19:55:37 10° N 20:00:04 73° E 20:04:31 10° SSE
STARLINK-1162 3.8 19:59:19 10° WNW 20:03:26 68° SW 20:07:33 10° SE
STARLINK-1238 4.4 20:00:05 10° SSW 20:03:41 29° SE 20:07:18 10° ENE
ERS-1 Rocket 4.4 20:01:08 10° ESE 20:05:04 24° ENE 20:09:02 10° N
STARLINK-1115 4.4 20:01:37 10° NW 20:05:38 47° NNE 20:09:39 10° E
Cosmos 1833 Rocket 3.9 20:00:54 10° N 20:05:49 30° NE 20:10:41 10° ESE
Cosmos 1975 3.4 20:04:35 10° N 20:08:28 41° ENE 20:12:18 10° SSE
STARLINK-1201 4.3 20:04:58 10° SSW 20:08:39 32° SE 20:12:21 10° ENE
Tsikada Rocket 4.1 20:03:28 10° S 20:09:34 63° E 20:15:40 10° NNE
Resurs 1-3 4.0 20:05:36 10° S 20:09:56 66° WSW 20:14:20 10° NNW
Spot 2 Rocket 4.0 20:05:28 10° SE 20:10:16 46° ENE 20:15:05 10° N
STARLINK-1076 4.4 20:06:35 10° NW 20:10:38 49° NNE 20:14:40 10° E
Meteor 2-9 Rocket 4.4 20:07:29 10° N 20:12:47 51° ENE 20:17:58 10° SSE
CZ-2C R/B 3.0 20:07:37 10° N 20:13:13 79° WNW 20:18:50 10° SSW
STARLINK-1159 3.9 20:09:19 10° WNW 20:13:25 58° SW 20:17:12 12° SE
STARLINK-1206 4.2 20:09:50 10° SSW 20:13:36 35° SE 20:17:23 10° ENE
STARLINK-1092 4.3 20:11:33 10° NW 20:15:37 52° NNE 20:19:41 10° E
CZ-2C R/B 4.3 20:11:33 10° N 20:15:57 61° WNW 20:20:22 10° SSW
Cosmos 389 Rocket 2.4 20:13:25 10° S 20:16:51 88° ESE 20:20:22 10° NNE
Cosmos 2056 Rocket 3.8 20:13:22 10° S 20:18:11 44° ESE 20:23:03 10° NNE
Cosmos 2242 Rocket 3.8 20:13:51 10° SSW 20:18:14 73° W 20:22:39 10° N
STARLINK-1171 4.0 20:14:20 10° WNW 20:18:23 54° SW 20:22:00 13° SE
STARLINK-1205 4.1 20:14:43 10° SSW 20:18:33 37° SE 20:22:24 10° ENE
SL-4 R/B 4.0 20:17:39 10° NNE 20:18:48 11° NE 20:19:57 10° ENE
Okean 1 3.3 20:15:10 10° S 20:19:11 82° E 20:23:16 10° N
STARLINK-1080 4.2 20:16:34 10° NW 20:20:39 54° NNE 20:24:43 10° ESE
STARLINK-1155 4.1 20:19:20 10° WNW 20:23:21 49° SW 20:26:47 13° SE
STARLINK-1218 4.0 20:19:36 10° SSW 20:23:30 41° SE 20:27:24 10° ENE
ISS -2.0 20:20:31 10° WNW 20:23:35 32° N 20:26:39 10° ENE
Iridium 51 4.5 20:20:04 10° SSE 20:24:09 56° E 20:27:54 10° NNE
Cosmos 909 Rocket 4.4 20:16:48 10° NW 20:25:00 86° NE 20:31:07 13° SE
STARLINK-1090 4.1 20:21:32 10° NW 20:25:38 57° NNE 20:29:41 10° ESE
Meteor 1-19 Rocket 4.3 20:21:20 10° S 20:26:50 66° E 20:32:32 10° NNE
Cosmos 44 Rocket 4.1 20:22:56 10° NW 20:27:35 45° WSW 20:32:18 10° S
STARLINK-1166 4.2 20:24:20 10° WNW 20:28:18 46° SW 20:31:33 14° SSE
STARLINK-1254 3.9 20:24:31 10° SSW 20:28:28 44° SE 20:32:25 10° ENE
SL-8 R/B 3.7 20:24:58 10° WSW 20:29:47 87° NNW 20:34:38 10° ENE
STARLINK-1089 4.0 20:26:31 10° WNW 20:30:38 61° NNE 20:34:28 12° ESE
Cosmos 2278 Rocket 2.8 20:26:01 10° S 20:31:09 37° ESE 20:36:19 10° NE
STARLINK-1165 4.4 20:29:21 10° WNW 20:33:16 42° SW 20:36:21 15° SSE
STARLINK-1231 3.8 20:29:28 10° SW 20:33:27 48° SE 20:37:26 10° ENE
Cosmos 1356 3.5 20:30:46 10° NNW 20:34:14 78° W 20:37:23 12° S
STARLINK-1107 3.9 20:31:29 10° WNW 20:35:37 64° NNE 20:39:15 13° ESE
Meteor 1-18 Rocket 4.2 20:30:49 10° S 20:36:23 89° WNW 20:42:03 10° N
STARLINK-1169 4.5 20:34:21 10° WNW 20:38:13 39° SW 20:41:08 16° SSE
STARLINK-1232 3.7 20:34:23 10° SW 20:38:24 52° SE 20:42:26 10° ENE
NOSS 2-3 (E) 3.6 20:35:21 10° SSW 20:39:34 70° SE 20:44:34 10° NE
Lacrosse 5 3.0 20:34:51 10° NW 20:39:36 38° NNE 20:44:19 10° E
STARLINK-1066 3.8 20:36:29 10° WNW 20:40:37 68° NNE 20:44:02 15° ESE
Cosmos 1844 Rocket 3.9 20:36:16 10° SW 20:41:42 46° WNW 20:47:10 10° NNE
Terra 3.0 20:38:31 14° ESE 20:41:47 29° ENE 20:45:52 10° N
STARLINK-1208 3.6 20:39:18 10° SW 20:43:21 57° SE 20:47:25 10° ENE
STARLINK-1228 3.8 20:40:51 10° WSW 20:44:09 56° NNW 20:47:27 10° NE
STARLINK-1081 3.7 20:41:27 10° WNW 20:45:37 73° NNE 20:48:49 16° ESE
IGS 5A 3.4 20:44:11 16° SSE 20:47:31 82° ENE 20:51:42 10° N
STARLINK-1234 3.7 20:44:42 10° WSW 20:47:46 53° NNW 20:50:51 10° NE
STARLINK-1271 3.6 20:44:15 10° SW 20:48:19 61° SE 20:52:25 10° ENE
STARLINK-1212 3.2 20:46:00 10° WSW 20:49:06 66° NNW 20:52:12 10° NE
Cosmos 1452 Rocket 4.4 20:45:55 16° SSE 20:49:16 31° E 20:53:53 10° NE
STARLINK-1209 3.9 20:46:28 10° WSW 20:49:32 50° NNW 20:52:37 10° NE
STARLINK-1105 3.2 20:46:29 10° WSW 20:49:34 66° NNW 20:52:39 10° NE
STARLINK-1247 3.3 20:47:23 10° WSW 20:50:29 65° NNW 20:53:35 10° NE
STARLINK-1070 3.7 20:46:25 10° WNW 20:50:34 77° NNE 20:53:35 18° ESE
Cosmos 1515 3.9 20:46:53 10° SSW 20:50:41 72° W 20:54:31 10° N
STARLINK-1227 3.3 20:47:51 10° WSW 20:50:56 64° NNW 20:54:01 10° NE
Okean 3 3.6 20:47:57 14° S 20:51:29 58° E 20:55:44 10° NNE
Cosmos 1300 Rocket 3.9 20:47:15 10° N 20:51:37 50° ENE 20:54:26 20° SE
STARLINK-1226 3.3 20:48:42 10° WSW 20:51:47 63° NNW 20:54:53 10° NE
Crew Dragon 2.4 20:50:34 10° NW 20:52:17 21° N 20:54:07 10° ENE
STARLINK-1215 3.4 20:49:39 10° WSW 20:52:44 62° NNW 20:55:50 10° NE
Cosmos 407 Rocket 4.0 20:47:56 10° NNW 20:53:11 59° WSW 20:57:50 13° S
STARLINK-1154 3.5 20:49:12 10° SW 20:53:17 66° SE 20:57:25 10° ENE
USA 245 3.1 20:50:56 16° S 20:53:54 71° WSW 20:56:59 10° NNW
STARLINK-1217 3.4 20:51:26 10° WSW 20:54:30 61° NNW 20:57:36 10° NE
STARLINK-1229 3.4 20:52:21 10° WSW 20:55:26 60° NNW 20:58:32 10° NE
STARLINK-1069 3.6 20:51:23 10° WNW 20:55:33 82° NNE 20:58:22 20° ESE
Cosmos 1420 Rocket 4.2 20:51:00 11° S 20:55:54 50° ESE 21:00:55 10° NNE
STARLINK-1270 3.5 20:53:12 10° WSW 20:56:17 59° NNW 20:59:23 10° NE
STARLINK-1189 3.5 20:55:04 10° WSW 20:58:07 57° NNW 21:01:13 10° NE
STARLINK-1197 3.5 20:54:09 10° SW 20:58:16 72° SE 21:02:24 10° ENE
Cosmos 2221 Rocket 3.6 20:54:39 15° S 20:58:21 66° E 21:02:52 10° NNE
Okean 1-7 4.1 20:54:44 10° SSW 20:58:51 44° WNW 21:02:58 10° N
STARLINK-1188 3.6 20:55:56 10° WSW 20:59:01 56° NNW 21:02:06 10° NE
NOSS 2-3 (D) 3.7 20:55:14 10° SW 20:59:30 87° NW 21:04:35 10° NE
STARLINK-1235 4.0 20:56:44 10° W 20:59:44 46° NNW 21:02:44 10° NE
STARLINK-1187 3.8 20:57:07 10° WSW 21:00:08 50° NNW 21:03:09 10° NE
STARLINK-1085 3.6 20:56:23 10° WNW 21:00:33 88° NNE 21:03:10 22° ESE
Meteor 1-13 Rocket 4.4 20:56:55 16° SSE 21:01:13 53° E 21:06:43 10° NNE
STARLINK-1191 3.6 20:58:26 10° WSW 21:01:29 54° NNW 21:04:33 10° NE
COSMOS 2406 3.3 20:55:59 10° NNW 21:01:47 78° WSW 21:05:59 19° SSE
STARLINK-1221 3.7 20:59:20 10° WSW 21:02:22 53° NNW 21:05:25 10° NE
Cosmos 371 Rocket 3.9 21:00:02 20° SSE 21:02:52 38° ESE 21:07:22 10° NE
STARLINK-1198 3.5 20:59:05 10° SW 21:03:12 77° SSE 21:07:22 10° ENE
STARLINK-1222 3.7 21:00:13 10° WSW 21:03:15 52° NNW 21:06:19 10° NE
STARLINK-1214 3.7 21:01:08 10° WSW 21:04:10 52° NNW 21:07:14 10° NE
Resurs 01 Rocket 3.4 21:00:43 10° SSW 21:04:30 27° W 21:08:19 10° NW
Meteor 2-4 Rocket 3.5 20:59:15 10° S 21:04:39 84° E 21:10:02 10° NNE
STARLINK-1086 3.5 21:01:22 10° WNW 21:05:32 87° SSW 21:07:57 24° ESE
USA 215 4.0 20:59:42 10° E 21:05:57 49° NNE 21:12:11 10° NW
SPOT 1/Viking Rocket 3.6 21:02:31 17° S 21:06:32 81° WSW 21:11:43 10° NNW
Abrixas rocket 2.3 21:03:38 10° W 21:06:34 62° N 21:09:30 10° ENE
Cosmos 1674 Rocket 4.3 21:04:49 23° SE 21:06:43 35° E 21:10:42 10° NNE
STARLINK-1199 3.5 21:04:05 10° SW 21:08:13 83° SSE 21:12:23 10° ENE
CREW DRAGON DEMO-1 DEB 4.0 21:05:27 10° WNW 21:08:13 30° SW 21:09:01 26° S
Sich 1 Rocket 4.2 21:05:51 10° NNW 21:10:22 57° W 21:14:02 15° S
USA 229 DEB 4.5 21:04:04 10° WSW 21:10:28 54° NW 21:17:17 10° NE
STARLINK-1095 3.5 21:06:20 10° WNW 21:10:30 81° SSW 21:12:43 26° SE
USA 229 4.5 21:04:10 10° WSW 21:10:35 54° NW 21:17:23 10° NE
Meteor 1-4 Rocket 3.3 21:07:24 10° SSW 21:10:44 48° WNW 21:14:07 10° N
STARLINK-1210 3.5 21:09:02 10° WSW 21:13:11 88° SSE 21:17:20 10° ENE
Cosmos 1378 Rocket 4.5 21:12:35 25° SE 21:14:12 32° E 21:18:08 10° NNE
NOSS 3 (A) 4.2 21:13:41 29° SSW 21:14:51 66° SE 21:17:46 10° NE
STARLINK-1077 3.6 21:11:19 10° WNW 21:15:28 76° SSW 21:17:29 29° SE
SPOT 5 3.0 21:12:28 23° SSE 21:15:45 80° ENE 21:21:04 10° NNW
Nadezhda 4 Rocket 4.5 21:13:37 22° SE 21:17:06 42° E 21:22:48 10° NNE
STARLINK-1219 3.6 21:14:01 10° WSW 21:18:09 86° NNW 21:22:19 10° ENE
NOSS 3-1 (A) 3.9 21:13:57 10° SW 21:19:27 61° NW 21:25:55 10° NE
STARLINK-1075 3.6 21:16:19 10° WNW 21:20:26 70° SW 21:22:17 31° SE
Cosmos 1741 Rocket 4.4 21:16:36 10° NNW 21:21:42 50° ENE 21:24:31 25° SE
STARLINK-1211 3.7 21:18:59 10° WSW 21:23:07 81° NNW 21:27:17 10° ENE
Cosmos 2279 Rocket 4.0 21:17:53 10° N 21:24:09 83° W 21:28:35 20° S
Aureole 1 Rocket 4.4 21:21:19 10° NW 21:25:04 34° WSW 21:28:42 15° SSW
STARLINK-1093 3.7 21:21:18 10° WNW 21:25:24 65° SW 21:27:04 34° SE
STARLINK-1244 4.5 21:26:12 30° ESE 21:26:12 30° ESE 21:29:18 10° ENE
Cosmos 1140 Rocket 4.5 21:22:13 10° NW 21:27:02 39° WSW 21:30:41 16° SSW
Okean 2 Rocket 3.4 21:23:09 10° NNW 21:27:32 60° W 21:30:14 22° SSW
STARLINK-1071 4.4 21:23:34 10° NW 21:27:36 48° NNE 21:30:39 16° E
STARLINK-1245 3.7 21:23:59 10° WSW 21:28:07 76° NNW 21:32:17 10° ENE
STARLINK-1074 3.7 21:26:17 10° WNW 21:30:23 60° SW 21:31:51 36° SSE
STARLINK-1138 4.3 21:30:58 33° SE 21:30:58 33° SE 21:34:21 10° ENE
STARLINK-1110 4.3 21:27:45 10° NW 21:31:49 50° NNE 21:34:41 18° E
BREEZE-M DEB (TANK) 4.1 21:16:13 10° WNW 21:32:05 88° NNE 21:35:38 21° ESE
STARLINK-1203 4.1 21:32:36 36° SE 21:32:46 36° SE 21:36:37 10° ENE
STARLINK-1233 3.8 21:28:58 10° WSW 21:33:06 72° NNW 21:37:15 10° ENE
ERBS 2.1 21:32:41 28° SSW 21:34:13 63° SE 21:37:30 10° NE
STARLINK-1143 4.1 21:35:46 36° SE 21:35:46 36° SE 21:39:22 10° ENE
Cosmos 1850 Rocket 4.1 21:30:30 10° NNW 21:35:51 69° ENE 21:38:31 30° SE
STARLINK-1124 4.2 21:33:31 10° NW 21:37:36 53° NNE 21:40:13 20° E
STARLINK-1204 3.9 21:33:59 10° WSW 21:38:06 67° NNW 21:42:14 10° ENE
STARLINK-1088 3.9 21:36:16 10° WNW 21:40:18 51° SW 21:41:24 39° S
STARLINK-1241 4.0 21:40:30 39° SE 21:40:30 39° SE 21:44:22 10° ENE
Cosmos 2151 Rocket 3.9 21:36:04 10° NNW 21:40:34 64° W 21:42:53 27° SSW
Cosmos 2082 Rocket 2.2 21:35:38 10° NNW 21:41:23 87° ENE 21:44:18 31° SSE
STARLINK-1122 4.1 21:38:30 10° NW 21:42:36 56° NNE 21:45:00 23° E
STARLINK-1238 4.0 21:38:57 10° WSW 21:43:03 64° NNW 21:47:11 10° ENE
ERS-1 Rocket 3.6 21:40:28 22° SSW 21:43:33 50° W 21:48:27 10° NNW
STARLINK-1115 4.0 21:41:15 10° WNW 21:45:15 47° SW 21:46:10 39° S
Okean 1 Rocket 3.1 21:40:47 10° N 21:45:16 67° E 21:46:51 38° SSE
STARLINK-1239 3.9 21:45:15 43° SSE 21:45:25 43° SE 21:49:23 10° ENE
SeaSat 1 2.7 21:41:47 10° NE 21:46:34 48° ESE 21:48:18 34° SSE
STARLINK-1126 4.0 21:43:25 10° NW 21:47:31 59° NNE 21:49:43 26° E
STARLINK-1201 4.2 21:43:59 10° WSW 21:48:04 60° NNW 21:52:11 10° NE
Cosmos 1833 Rocket 3.2 21:44:34 10° NW 21:50:00 51° WSW 21:52:51 27° S
STARLINK-1076 4.1 21:46:16 10° WNW 21:50:13 43° SW 21:50:58 39° S
STARLINK-1240 3.8 21:50:02 45° SSE 21:50:24 47° SE 21:54:24 10° ENE
Aureole 2 Rocket 3.5 21:51:13 28° ENE 21:51:13 28° ENE 21:53:15 10° NE
Cosmos 304 Rocket 4.0 21:50:10 37° SSE 21:51:39 51° ESE 21:56:18 10° NNE
SL-4 R/B 1.1 21:49:15 10° NW 21:52:27 75° WSW 21:52:33 74° SW
STARLINK-1082 3.9 21:48:28 10° WNW 21:52:36 63° NNE 21:54:35 28° E
Cosmos 1805 3.8 21:48:51 10° N 21:52:39 45° ENE 21:53:26 39° ESE
STARLINK-1206 4.3 21:48:59 10° WSW 21:53:04 56° NNW 21:57:10 10° NE
Meteor 1-15 Rocket 4.3 21:47:06 10° N 21:53:04 90° SW 21:56:04 31° S
EO 1 Del DPAF 4.2 21:50:12 10° NNE 21:53:36 31° E 21:53:37 31° E
Okean 2 4.4 21:53:51 30° ESE 21:54:17 31° E 21:57:57 10° NNE
Cosmos 1092 Rocket 4.3 21:52:19 31° SSE 21:55:00 51° E 22:00:55 10° NNE
STARLINK-1092 4.2 21:51:16 10° WNW 21:55:09 40° SW 21:55:44 38° SSW
STARLINK-1216 3.7 21:54:49 47° S 21:55:22 51° SE 21:59:24 10° ENE
Cosmos 332 Rocket 3.7 21:52:44 26° SSW 21:55:30 86° ESE 22:00:27 10° NNE
STARLINK-1100 3.8 21:53:26 10° WNW 21:57:34 67° NNE 21:59:21 32° E
Cosmos 2369 Rocket 3.8 21:57:13 17° ESE 21:57:35 17° E 22:01:11 10° ENE
Cosmos 1455 Rocket 4.3 21:54:15 10° NNE 21:58:01 27° ENE 21:59:07 24° E
STARLINK-1205 4.4 21:53:59 10° W 21:58:03 54° NNW 22:02:08 10° NE
STARLINK-1080 4.3 21:56:19 10° WNW 22:00:09 37° SW 22:00:32 36° SSW
STARLINK-1237 3.6 21:59:35 47° S 22:00:20 55° SE 22:04:24 10° ENE
ISS -3.6 21:57:22 10° WNW 22:00:44 70° NNE 22:01:21 54° E
Cosmos 1066 Rocket 4.0 21:58:19 30° S 22:01:08 87° ESE 22:06:33 10° NNE
STARLINK-1083 3.8 21:58:24 10° WNW 22:02:33 71° NNE 22:04:07 36° ESE
Cosmos 1378 3.2 22:02:30 55° ESE 22:02:52 58° E 22:06:32 10° NNE
STARLINK-1218 4.5 21:59:00 10° W 22:03:02 51° NNW 22:07:06 10° NE
STARLINK-1090 4.5 22:01:19 10° WNW 22:05:05 34° SW 22:05:19 33° SW
STARLINK-1202 3.5 22:04:21 45° SSW 22:05:18 60° SE 22:09:24 10° ENE
Cosmos 1842 4.4 22:05:25 29° E 22:05:28 29° E 22:08:54 10° NNE
STARLINK-1125 3.7 22:03:23 10° WNW 22:07:32 75° NNE 22:08:54 41° ESE
Cosmos 1943 Rocket 3.1 22:07:35 28° ESE 22:08:17 29° ESE 22:12:59 10° NE
Cosmos 1331 Rocket 4.1 22:07:06 40° SSE 22:08:32 53° ESE 22:13:34 10° NNE
STARLINK-1109 3.6 22:08:21 10° WNW 22:12:30 80° NNE 22:13:41 46° ESE
SL-8 R/B 4.0 22:07:46 10° W 22:12:34 67° N 22:17:23 10° E
Cosmos 1437 Rocket 3.8 22:12:22 24° SW 22:14:07 39° WNW 22:17:42 10° N
Cosmos 2278 Rocket 3.5 22:09:53 10° WSW 22:15:11 39° NW 22:20:31 10° NNE
STARLINK-1246 3.4 22:13:54 40° SW 22:15:14 70° SE 22:19:22 10° ENE
STARLINK-1091 3.5 22:13:19 10° WNW 22:17:29 85° NNE 22:18:27 52° ESE
Terra 2.9 22:17:23 25° SW 22:19:26 36° W 22:23:49 10° NNW
STARLINK-1224 3.4 22:18:39 37° SW 22:20:12 75° SSE 22:24:21 10° ENE
ALOS 2 3.8 22:19:22 27° E 22:20:36 31° ENE 22:24:29 10° N
STARLINK-1072 3.5 22:18:19 10° WNW 22:22:28 89° SW 22:23:15 58° ESE
Lacrosse 5 1.9 22:17:49 10° NW 22:22:49 61° SW 22:24:01 47° S
Spot 4 3.9 22:23:24 44° SE 22:24:51 70° ENE 22:29:42 10° N
STARLINK-1225 3.4 22:23:26 33° SW 22:25:11 81° SSE 22:29:21 10° ENE
Thor Agena Rocket 3.5 22:20:51 10° NNE 22:26:11 79° ESE 22:28:05 41° S
Crew Dragon 3.2 22:23:59 10° WNW 22:24:19 13° WNW 22:24:19 13° WNW
STARLINK-1096 3.5 22:23:19 10° WNW 22:27:28 83° SW 22:28:03 65° SE
STARLINK-1230 3.5 22:28:13 31° SW 22:30:09 86° SSE 22:34:19 10° ENE
SL-4 R/B 3.5 22:31:54 16° NNE 22:31:54 16° NNE 22:32:37 10° N
BREEZE-M DEB (TANK) 3.5 22:16:32 10° WSW 22:30:52 89° SSE 22:34:37 10° ENE
STARLINK-1079 3.4 22:28:16 10° WNW 22:32:25 78° SW 22:32:48 70° SSE
EXPRESS MD2 4.0 22:30:08 17° WSW 22:33:23 79° SSE 22:41:52 10° ENE
Cosmos 1544 Rocket 4.1 22:29:44 10° N 22:33:54 45° ENE 22:34:36 41° ESE
STARLINK-1243 3.5 22:32:59 28° WSW 22:35:08 88° NNW 22:39:18 10° ENE
Cosmos 1726 4.4 22:33:41 10° NNE 22:35:52 15° ENE 22:36:25 14° E
STARLINK-1116 3.4 22:33:15 10° WNW 22:37:24 72° SW 22:37:35 71° S
Cosmos 1766 3.4 22:34:04 10° NNW 22:38:00 61° W 22:38:27 56° SW
SL-27 R/B 3.7 22:36:02 10° N 22:39:18 31° ENE 22:39:37 31° ENE
STARLINK-1236 3.6 22:37:45 25° WSW 22:40:07 83° NNW 22:44:17 10° ENE
Abrixas rocket 3.4 22:39:21 10° WNW 22:41:14 34° WNW 22:41:14 34° WNW
Cosmos 1953 4.0 22:39:57 10° NNE 22:43:07 22° ENE 22:43:45 21° E
Cosmos 1553 Rocket 4.2 22:36:52 10° N 22:43:09 60° ENE 22:45:31 37° SE
Cosmos 1461 2.9 22:43:04 53° SW 22:44:01 81° NW 22:48:23 10° NE
Cosmos 1271 Rocket 3.8 22:46:32 32° E 22:46:32 32° E 22:49:44 10° NNE
STARLINK-1094 3.7 22:43:15 10° WNW 22:47:10 61° SW 22:47:10 61° SW
Cosmos 2026 Rocket 3.9 22:45:54 38° S 22:48:28 87° W 22:54:51 10° N
USA 215 3.2 22:45:48 35° SE 22:48:47 73° SW 22:55:21 10° NW
STARLINK-1102 4.4 22:45:32 10° NW 22:49:35 50° NNE 22:51:45 24° E
STARLINK-1269 3.7 22:47:16 20° WSW 22:50:04 73° NNW 22:54:13 10° ENE
Aureole 3 Rocket 4.0 22:46:10 10° N 22:51:25 75° E 22:54:05 39° SSE
Cosmos 1758 3.7 22:47:49 10° N 22:51:46 49° ENE 22:52:04 48° E
STARLINK-1117 3.8 22:48:14 10° WNW 22:51:56 54° WSW 22:51:56 54° WSW
Cosmos 1707 3.7 22:53:56 36° E 22:53:56 36° E 22:57:20 10° NNE
STARLINK-1111 4.3 22:50:30 10° NW 22:54:34 52° NNE 22:56:31 27° E
STARLINK-1200 3.8 22:52:04 18° WSW 22:55:04 69° NNW 22:59:13 10° ENE
Cosmos 1900 4.4 22:52:01 10° NNW 22:57:03 74° NE 22:58:31 46° SE
NOSS 2-2 (D) 3.0 22:57:13 84° NE 22:57:13 84° NE 23:01:05 10° NE
STARLINK-1078 4.0 22:53:13 10° WNW 22:56:43 48° WSW 22:56:43 48° WSW
Cosmos 1733 3.8 22:53:37 10° NNW 22:57:17 46° W 22:57:26 45° W
STARLINK-1073 4.2 22:55:29 10° NW 22:59:35 55° NNE 23:01:19 31° E
STARLINK-1192 3.9 22:56:50 16° WSW 23:00:04 65° NNW 23:04:12 10° ENE
NOSS 3-2 (C) 4.4 22:53:11 10° NW 23:00:31 60° NE 23:07:07 17° ESE
Cosmos 1975 Rocket 3.5 23:00:54 43° SW 23:01:56 54° WNW 23:06:19 10° N
STARLINK-1108 4.2 22:58:13 10° WNW 23:01:30 43° WSW 23:01:30 43° WSW
STARLINK-1121 4.1 23:00:26 10° NW 23:04:33 58° NNE 23:06:04 35° E
STARLINK-1244 4.1 23:01:36 14° WSW 23:05:02 61° NNW 23:09:09 10° ENE
STARLINK-1071 4.4 23:03:14 10° WNW 23:06:17 38° WSW 23:06:17 38° WSW
STARLINK-1106 4.0 23:05:25 10° WNW 23:09:33 62° NNE 23:10:51 39° E
STARLINK-1138 4.2 23:06:22 13° WSW 23:10:02 58° NNW 23:14:08 10° NE
NOSS 3-4 (A) 4.3 23:10:07 29° ESE 23:10:30 29° ESE 23:15:43 10° NE
NOSS 3-4 (C) 4.4 23:10:13 28° ESE 23:10:37 29° ESE 23:15:48 10° NE
Cosmos 1242 Rocket 2.6 23:11:36 76° NNW 23:11:36 76° NNW 23:15:03 10° N
STARLINK-1203 4.3 23:08:19 10° WSW 23:12:28 56° NNW 23:16:37 10° NE
Meteor 2-10 4.3 23:07:38 10° N 23:12:38 55° ENE 23:13:53 43° ESE
STARLINK-1112 3.9 23:10:25 10° WNW 23:14:32 65° NNE 23:15:39 44° E
STARLINK-1143 4.3 23:11:10 11° W 23:15:01 55° NNW 23:19:07 10° NE
NOSS 2-2 (E) 4.0 23:15:11 38° W 23:16:08 49° NW 23:20:10 10° NNE
ATLAS 3B R/B 4.0 23:10:10 10° NNW 23:16:22 36° NE 23:22:43 10° ESE
Cosmos 2266 Rocket 4.3 23:16:09 39° SE 23:18:00 53° E 23:23:53 10° NNE
STARLINK-1128 3.8 23:15:23 10° WNW 23:19:32 69° NNE 23:20:25 51° E
ATLAS CENTAUR R/B 3.8 23:20:47 12° E 23:20:47 12° E 23:21:41 10° E
STARLINK-1241 4.4 23:15:58 10° W 23:20:01 52° NNW 23:24:05 10° NE
CENTAUR R/B 3.4 23:12:42 10° NW 23:20:39 68° NE 23:27:41 17° SE
Cosmos 1470 2.8 23:16:51 10° NNW 23:20:37 65° W 23:20:37 65° W
Cosmos 1503 Rocket 4.5 23:17:48 10° NNW 23:23:01 55° ENE 23:24:51 37° ESE
SeaSat 1 4.1 23:19:39 10° N 23:23:54 30° NW 23:28:04 10° WSW
STARLINK-1113 3.7 23:20:22 10° WNW 23:24:30 74° NNE 23:25:12 58° E
Cosmos 2082 Rocket 4.2 23:21:34 10° WNW 23:24:39 15° W 23:26:09 14° WSW
STARLINK-1239 4.5 23:20:58 10° W 23:25:00 49° NNW 23:29:03 10° NE
BREEZE-M DEB 4.1 23:25:44 10° W 23:29:16 72° N 23:41:51 10° ENE
STARLINK-1119 3.6 23:25:20 10° WNW 23:29:30 79° NNE 23:29:59 67° E
BREEZE-M DEB (TANK) 3.2 23:27:38 10° WNW 23:31:06 70° NNE 23:36:03 10° E
Helios 1A 2.8 23:33:57 77° SSW 23:34:10 81° WSW 23:38:23 10° NNW
STARLINK-1114 3.5 23:30:20 10° WNW 23:34:30 84° NNE 23:34:46 76° E
Cosmos 1455 Rocket 4.3 23:32:02 10° NNW 23:35:48 29° W 23:36:14 28° W
Meteor 2-19 Rocket 4.5 23:34:37 45° SSE 23:36:32 73° E 23:42:40 10° NNE
Cosmos 968 Rocket 3.3 23:31:46 10° NNW 23:36:58 85° WSW 23:38:01 58° SSE
Cosmos 1354 Rocket 4.2 23:32:39 10° NNW 23:37:57 66° ENE 23:39:37 42° SE
ATLAS 2AS CENTAUR R/B 3.2 23:35:54 38° S 23:38:44 55° ESE 23:46:27 10° NE
NOSS 2-2 (C) 4.5 23:37:49 29° W 23:39:01 38° NW 23:42:52 10° NNE
STARLINK-1130 (DARKSAT) 3.5 23:35:17 10° WNW 23:39:27 89° NE 23:39:32 86° ESE
Cosmos 1908 4.3 23:36:13 10° N 23:39:45 35° ENE 23:40:02 34° E
Cosmos 2369 Rocket 2.2 23:38:58 43° SW 23:40:55 77° WNW 23:46:37 10° NNE
STARLINK-1084 3.5 23:40:16 10° WNW 23:44:19 83° W 23:44:19 83° W
Cosmos 1486 Rocket 4.2 23:40:45 10° NNW 23:45:57 57° WSW 23:46:50 50° SW
Cosmos 1025 Rocket 3.3 23:45:35 50° WSW 23:46:03 53° WNW 23:50:15 10° N
NOSS 3-2 (A) 4.1 23:39:13 10° NW 23:46:42 64° WSW 23:50:12 37° S
STARLINK-1098 3.6 23:45:16 10° WNW 23:49:07 73° W 23:49:07 73° W
Cosmos 2315 Rocket 4.1 23:43:40 10° N 23:49:53 70° E 23:52:12 40° SSE
Cosmos 1943 Rocket 2.9 23:49:05 27° WSW 23:51:46 47° WNW 23:57:11 10° NNE
Helios 1B rocket 2.8 23:48:42 10° NNE 23:52:44 50° E 23:52:51 50° ESE
Meteor 2-5 Rocket 4.5 23:52:49 33° SE 23:54:23 40° E 23:59:33 10° NNE
STARLINK-1123 3.7 23:50:15 10° WNW 23:53:53 64° W 23:53:53 64° W
KORONAS-FOTON 4.3 23:55:12 48° E 23:55:12 48° E 23:58:46 10° NNE
Resurs 1-4 Rocket 4.3 23:54:12 10° ENE 23:56:49 14° E 23:59:06 11° ESE
